Location: Bukit Nyuki
(2.5885°N, 113.7476°E)
Time: 17:16:29
(UTC+00:00)

BLOCK DM-SL R/B - Pass Details

Date: 18 May 2021
Orbit: 679 x 35587 km, 0.1° (Epoch: 20 June)

Event Time Altitude Azimuth Distance (km) Brightness Sun altitude
Exits shadow 21:23:10 12° 266° (W) 4,909 7.0 -12.8°
Maximum altitude 21:32:26 71° 183° (S) 988 4.0 -10.6°
Drops below altitude 10° 21:36:22 10° 98° (E) 2,131 6.9 -9.7°
Sets 21:38:09 0° 96° (E) 3,019 7.9 -9.3°
